San Martin, CA

2:18 AM PDT on May 30, 2017 (GMT -0700)
San Martin

Weather History for KE16 - November, 2013

Change the Weather History Date:

Saturday, November 9, 2013

  Actual Average (KWVI) Record (KWVI)
Temperature  
Mean Temperature 58 °F -  
Max Temperature 75 °F 66 °F 80 °F (2016)
Min Temperature 42 °F 42 °F 36 °F (1998)
Degree Days  
Heating Degree Days 6    
Growing Degree Days 8 (Base 50)    
Moisture  
Dew Point 43 °F    
Average Humidity 69    
Maximum Humidity 100    
Minimum Humidity 22    
Precipitation  
Precipitation 0.00 in - - ()
Sea Level Pressure  
Sea Level Pressure 30.02 in    
Wind  
Wind Speed 3 mph (SSE)    
Max Wind Speed 13 mph    
Max Gust Speed -    
Visibility 10 miles    
Events      
Averages and records for this station are not official NWS values.
T = Trace of Precipitation, MM = Missing Value Source: NWS Daily Summary

Daily Weather History Graph

Daily Weather History Graph

Search for Another Location

Airport or City:

Trip Planner

Search our weather history database for the weather conditions in past years. The results will help you decide how hot, cold, wet, or windy it might be!

Date:

Astronomy

Nov. 09, 2013 Rise Set
Actual Time 6:39 AM PST 5:00 PM PST
Civil Twilight 6:11 AM PST 5:28 PM PST
Nautical Twilight 5:40 AM PST 5:59 PM PST
Astronomical Twilight 5:10 AM PST 6:29 PM PST
Moon 12:21 PM PST (11/9) 11:35 PM PST (11/9)
Length of Visible Light 11h 16m
Length of Day
10h 21m
Waxing Crescent, 45% of the Moon is Illuminated
Nov 9
Waxing Crescent
Nov 9
First Quarter
Nov 17
Full
Nov 25
Last Quarter
Dec 2
New

Hourly Weather History & Observations

Time (PST) Temp. Windchill Dew Point Humidity Pressure Visibility Wind Dir Wind Speed Gust Speed Precip Events Conditions
12:15 AM 50.0 °F - 44.6 °F 82% 30.01 in 10.0 mi NNW 3.5 mph - N/A   Clear
12:35 AM 50.0 °F - 44.6 °F 82% 30.01 in 10.0 mi NNW 4.6 mph - N/A   Clear
12:55 AM 50.0 °F - 44.6 °F 82% 30.01 in 10.0 mi North 4.6 mph - N/A   Clear
1:15 AM 48.2 °F - 42.8 °F 82% 30.00 in 10.0 mi North 4.6 mph - N/A   Clear
1:35 AM 48.2 °F - 42.8 °F 82% 30.00 in 10.0 mi NNW 3.5 mph - N/A   Clear
1:55 AM 46.4 °F 44.3 °F 41.0 °F 81% 30.00 in 10.0 mi North 4.6 mph - N/A   Clear
2:15 AM 46.4 °F - 41.0 °F 81% 30.00 in 10.0 mi Calm Calm - N/A   Scattered Clouds
2:35 AM 46.4 °F 45.2 °F 41.0 °F 81% 30.01 in 10.0 mi NNE 3.5 mph - N/A   Overcast
2:55 AM 44.6 °F - 41.0 °F 87% 30.01 in 10.0 mi Calm Calm - N/A   Mostly Cloudy
3:15 AM 44.6 °F 43.1 °F 41.0 °F 87% 30.01 in 10.0 mi North 3.5 mph - N/A   Overcast
3:35 AM 44.6 °F 42.2 °F 41.0 °F 87% 30.02 in 10.0 mi North 4.6 mph - N/A   Overcast
3:55 AM 44.6 °F 43.1 °F 41.0 °F 87% 30.02 in 10.0 mi North 3.5 mph - N/A   Overcast
4:15 AM 44.6 °F 43.1 °F 41.0 °F 87% 30.01 in 10.0 mi NNW 3.5 mph - N/A   Mostly Cloudy
4:35 AM 44.6 °F - 41.0 °F 87% 30.01 in 10.0 mi Calm Calm - N/A   Scattered Clouds
4:55 AM 42.8 °F 39.3 °F 39.2 °F 87% 30.01 in 10.0 mi North 5.8 mph - N/A   Scattered Clouds
5:15 AM 44.6 °F 42.2 °F 41.0 °F 87% 30.01 in 10.0 mi North 4.6 mph - N/A   Partly Cloudy
5:35 AM 44.6 °F 43.1 °F 41.0 °F 87% 30.01 in 10.0 mi North 3.5 mph - N/A   Partly Cloudy
5:55 AM 44.6 °F 43.1 °F 41.0 °F 87% 30.01 in 10.0 mi North 3.5 mph - N/A   Clear
6:15 AM 44.6 °F - 41.0 °F 87% 30.01 in 10.0 mi Calm Calm - N/A   Clear
6:35 AM 42.8 °F - 39.2 °F 87% 30.01 in 10.0 mi Calm Calm - N/A   Clear
6:55 AM 42.8 °F - 41.0 °F 93% 30.02 in 10.0 mi Calm Calm - N/A   Clear
7:15 AM 42.8 °F - 41.0 °F 93% 30.03 in 10.0 mi Calm Calm - N/A   Clear
7:35 AM 44.6 °F - 41.0 °F 87% 30.03 in 10.0 mi Calm Calm - N/A   Clear
7:55 AM 46.4 °F - 41.0 °F 81% 30.04 in 10.0 mi Calm Calm - N/A   Clear
8:15 AM 46.4 °F - 41.0 °F 81% 30.04 in 10.0 mi Calm Calm - N/A   Clear
8:35 AM 50.0 °F - 42.8 °F 76% 30.04 in 10.0 mi Calm Calm - N/A   Clear
8:55 AM 51.8 °F - 44.6 °F 76% 30.04 in 10.0 mi Calm Calm - N/A   Clear
9:15 AM 55.4 °F - 44.6 °F 67% 30.04 in 10.0 mi Calm Calm - N/A   Clear
9:35 AM 57.2 °F - 44.6 °F 63% 30.04 in 10.0 mi Calm Calm - N/A   Clear
9:55 AM 59.0 °F - 44.6 °F 59% 30.04 in 10.0 mi Calm Calm - N/A   Clear
10:15 AM 62.6 °F - 44.6 °F 52% 30.04 in 10.0 mi Calm Calm - N/A   Clear
10:35 AM 62.6 °F - 44.6 °F 52% 30.03 in 10.0 mi Calm Calm - N/A   Clear
10:55 AM 66.2 °F - 44.6 °F 46% 30.03 in 10.0 mi South 3.5 mph - N/A   Clear
11:15 AM 66.2 °F - 44.6 °F 46% 30.03 in 10.0 mi South 3.5 mph - N/A   Clear
11:35 AM 68.0 °F - 44.6 °F 43% 30.02 in 10.0 mi SSE 4.6 mph - N/A   Clear
11:55 AM 69.8 °F - 41.0 °F 35% 30.01 in 10.0 mi SE 3.5 mph - N/A   Clear
12:15 PM 71.6 °F - 39.2 °F 31% 30.00 in 10.0 mi Calm Calm - N/A   Clear
12:35 PM 73.4 °F - 37.4 °F 27% 30.00 in 10.0 mi SSW 4.6 mph - N/A   Clear
12:55 PM 75.2 °F - 33.8 °F 22% 29.99 in 10.0 mi Calm Calm - N/A   Clear
1:15 PM 75.2 °F - 33.8 °F 22% 29.98 in 10.0 mi SSE 4.6 mph - N/A   Clear
1:35 PM 75.2 °F - 37.4 °F 25% 29.98 in 10.0 mi SSW 9.2 mph - N/A   Clear
1:55 PM 73.4 °F - 42.8 °F 33% 29.98 in 10.0 mi SSW 11.5 mph - N/A   Clear
2:15 PM 71.6 °F - 46.4 °F 41% 29.98 in 10.0 mi SSW 8.1 mph - N/A   Clear
2:35 PM 73.4 °F - 41.0 °F 31% 29.98 in 10.0 mi SSW 5.8 mph - N/A   Clear
2:55 PM 73.4 °F - 41.0 °F 31% 29.98 in 10.0 mi SSW 8.1 mph - N/A   Clear
3:15 PM 73.4 °F - 37.4 °F 27% 29.98 in 10.0 mi SSW 8.1 mph - N/A   Clear
3:35 PM 71.6 °F - 39.2 °F 31% 29.98 in 10.0 mi South 4.6 mph - N/A   Clear
3:55 PM 71.6 °F - 39.2 °F 31% 29.98 in 10.0 mi South 6.9 mph - N/A   Clear
4:15 PM 69.8 °F - 41.0 °F 35% 29.98 in 10.0 mi South 8.1 mph - N/A   Clear
4:35 PM 66.2 °F - 44.6 °F 46% 29.98 in 10.0 mi SE 12.7 mph - N/A   Clear
4:55 PM 64.4 °F - 41.0 °F 42% 29.99 in 10.0 mi SSE 10.4 mph - N/A   Clear
5:15 PM 64.4 °F - 46.4 °F 52% 30.00 in 10.0 mi SSE 10.4 mph - N/A   Clear
5:35 PM 60.8 °F - 46.4 °F 59% 30.01 in 10.0 mi SSE 9.2 mph - N/A   Mostly Cloudy
5:55 PM 59.0 °F - 46.4 °F 63% 30.02 in 10.0 mi SSE 9.2 mph - N/A   Overcast
6:15 PM 57.2 °F - 48.2 °F 72% 30.03 in 10.0 mi SSE 9.2 mph - N/A   Overcast
6:35 PM 55.4 °F - 48.2 °F 77% 30.03 in 10.0 mi South 5.8 mph - N/A   Overcast
6:55 PM 55.4 °F - 48.2 °F 77% 30.04 in 10.0 mi SE 5.8 mph - N/A   Mostly Cloudy
7:15 PM 55.4 °F - 48.2 °F 77% 30.04 in 10.0 mi SE 6.9 mph - N/A   Partly Cloudy
7:35 PM 53.6 °F - 48.2 °F 82% 30.04 in 10.0 mi SE 4.6 mph - N/A   Partly Cloudy
7:55 PM 53.6 °F - 48.2 °F 82% 30.05 in 10.0 mi SE 3.5 mph - N/A   Clear
8:15 PM 53.6 °F - 48.2 °F 82% 30.05 in 10.0 mi ESE 3.5 mph - N/A   Scattered Clouds
8:35 PM 50.0 °F - 48.2 °F 94% 30.06 in 10.0 mi Calm Calm - N/A   Mostly Cloudy
8:55 PM 50.0 °F - 48.2 °F 94% 30.06 in 10.0 mi Calm Calm - N/A   Overcast
9:15 PM 50.0 °F - 48.2 °F 94% 30.07 in 10.0 mi Calm Calm - N/A   Overcast
9:35 PM 50.0 °F - 48.2 °F 94% 30.07 in 10.0 mi Calm Calm - N/A   Overcast
9:55 PM 48.2 °F - 46.4 °F 93% 30.08 in 9.0 mi South 3.5 mph - N/A   Overcast
10:15 PM 48.2 °F - 46.4 °F 93% 30.08 in 9.0 mi South 3.5 mph - N/A   Overcast
10:35 PM 48.2 °F - 46.4 °F 93% 30.08 in 8.0 mi SSE 3.5 mph - N/A   Overcast
10:55 PM 48.2 °F - 46.4 °F 93% 30.08 in 5.0 mi Calm Calm - N/A   Overcast
11:15 PM 48.2 °F - 48.2 °F 100% 30.07 in 5.0 mi Calm Calm - N/A   Overcast
11:35 PM 48.2 °F - 48.2 °F 100% 30.07 in 7.0 mi Calm Calm - N/A   Overcast
11:55 PM 46.4 °F - 46.4 °F 100% 30.07 in 7.0 mi Calm Calm - N/A   Overcast